ACA348 CYVR-CYOW

Flight info

Callsign ACA348
Flight time N/A
Altitude 33000
Route ALNOD DCT IKNIX DCT 49N110W DCT HML/N0455F350 DCT AGLIN DCT SMARE MEECH4
Aircraft A321/M-SDE3FGHIJ7M3P2RWY/LB1

Departure

Time 2026-05-06 11:44
Airport Vancouver International Airport (CYVR)

Arrival

Time N/A
Airport Ottawa Macdonald-Cartier International Airport (CYOW)
Time Latitude Longitude Altitude Speed Heading
2026-05-06 10:30 49.19641 -123.18521 10 ft 0 kts 199°
2026-05-06 11:29 49.19661 -123.18510 10 ft 4 kts 199°
2026-05-06 11:29 49.19683 -123.18499 10 ft 4 kts 210°
2026-05-06 11:29 49.19699 -123.18472 9 ft 4 kts 259°
2026-05-06 11:30 49.19699 -123.18439 11 ft 1 kts 279°
2026-05-06 11:30 49.19699 -123.18432 12 ft 0 kts 279°
2026-05-06 11:36 49.19699 -123.18435 11 ft 1 kts 280°
2026-05-06 11:36 49.19701 -123.18453 10 ft 3 kts 281°
2026-05-06 11:36 49.19705 -123.18487 9 ft 4 kts 280°
2026-05-06 11:36 49.19711 -123.18534 9 ft 5 kts 283°
2026-05-06 11:37 49.19734 -123.18579 9 ft 6 kts 330°
2026-05-06 11:37 49.19776 -123.18580 9 ft 8 kts
2026-05-06 11:37 49.19850 -123.18562 11 ft 12 kts
2026-05-06 11:37 49.19925 -123.18542 10 ft 10 kts 10°
2026-05-06 11:38 49.19991 -123.18524 9 ft 9 kts 10°
2026-05-06 11:38 49.20048 -123.18509 9 ft 8 kts 10°
2026-05-06 11:38 49.20094 -123.18498 10 ft 6 kts
2026-05-06 11:38 49.20125 -123.18530 10 ft 7 kts 301°
2026-05-06 11:39 49.20136 -123.18609 9 ft 10 kts 280°
2026-05-06 11:39 49.20152 -123.18744 9 ft 14 kts 280°
2026-05-06 11:39 49.20168 -123.18883 9 ft 13 kts 279°
2026-05-06 11:39 49.20182 -123.19014 9 ft 13 kts 279°
2026-05-06 11:40 49.20199 -123.19163 9 ft 16 kts 279°
2026-05-06 11:40 49.20219 -123.19338 9 ft 17 kts 279°
2026-05-06 11:40 49.20237 -123.19503 10 ft 15 kts 280°
2026-05-06 11:40 49.20254 -123.19646 9 ft 13 kts 280°
2026-05-06 11:41 49.20269 -123.19767 9 ft 11 kts 280°
2026-05-06 11:41 49.20281 -123.19874 9 ft 11 kts 279°
2026-05-06 11:41 49.20294 -123.19992 9 ft 11 kts 279°
2026-05-06 11:41 49.20324 -123.20083 9 ft 9 kts 317°
2026-05-06 11:42 49.20371 -123.20126 9 ft 8 kts 342°
2026-05-06 11:42 49.20423 -123.20123 11 ft 9 kts
2026-05-06 11:42 49.20502 -123.20102 11 ft 10 kts 10°
2026-05-06 11:42 49.20517 -123.20073 10 ft 2 kts 92°
2026-05-06 11:43 49.20513 -123.20027 10 ft 11 kts 98°
2026-05-06 11:43 49.20462 -123.19564 7 ft 79 kts 100°
2026-05-06 11:43 49.20332 -123.18436 14 ft 134 kts 100°
2026-05-06 11:44 49.19951 -123.15220 889 ft 155 kts 98°
2026-05-06 11:44 49.19792 -123.13561 1335 ft 162 kts 99°
2026-05-06 11:44 49.19623 -123.11754 1522 ft 180 kts 99°
2026-05-06 11:44 49.19500 -123.10453 1631 ft 193 kts 99°
2026-05-06 11:45 49.19298 -123.08329 1822 ft 210 kts 100°
2026-05-06 11:45 49.19082 -123.06009 1966 ft 232 kts 100°
2026-05-06 11:45 49.18850 -123.03517 2474 ft 240 kts 100°
2026-05-06 11:45 49.18612 -123.00972 3154 ft 243 kts 101°
2026-05-06 11:46 49.18363 -122.98362 3618 ft 256 kts 100°
2026-05-06 11:46 49.18102 -122.95618 4170 ft 264 kts 99°
2026-05-06 11:46 49.17838 -122.92810 4801 ft 270 kts 98°
2026-05-06 11:46 49.17569 -122.89935 5393 ft 276 kts 98°
2026-05-06 11:47 49.17292 -122.86987 5953 ft 284 kts 98°
2026-05-06 11:47 49.17007 -122.83961 6491 ft 291 kts 97°
2026-05-06 11:47 49.16711 -122.80866 7031 ft 297 kts 97°
2026-05-06 11:47 49.16408 -122.77722 7630 ft 301 kts 97°
2026-05-06 11:48 49.16106 -122.74588 8219 ft 304 kts 97°
2026-05-06 11:48 49.15800 -122.71378 8840 ft 307 kts 97°
2026-05-06 11:48 49.15492 -122.68150 9461 ft 309 kts 97°
2026-05-06 11:48 49.15180 -122.64885 10084 ft 312 kts 97°
2026-05-06 11:49 49.14858 -122.61531 10311 ft 329 kts 97°
2026-05-06 11:49 49.14516 -122.57978 10445 ft 348 kts 97°
2026-05-06 11:49 49.14152 -122.54224 10571 ft 366 kts 97°
2026-05-06 11:49 49.13772 -122.50333 10946 ft 374 kts 97°
2026-05-06 11:50 49.13383 -122.46378 11472 ft 378 kts 97°
2026-05-06 11:50 49.12989 -122.42396 12023 ft 381 kts 98°
2026-05-06 11:50 49.12591 -122.38396 12579 ft 383 kts 98°
2026-05-06 11:50 49.12189 -122.34356 13127 ft 386 kts 98°
2026-05-06 11:51 49.11783 -122.30284 13689 ft 389 kts 98°
2026-05-06 11:51 49.11372 -122.26184 14193 ft 392 kts 98°
2026-05-06 11:51 49.10954 -122.22036 14667 ft 396 kts 98°
2026-05-06 11:51 49.10533 -122.17869 15138 ft 399 kts 98°
2026-05-06 11:52 49.10107 -122.13664 15602 ft 403 kts 98°
2026-05-06 11:52 49.09673 -122.09416 16025 ft 406 kts 98°
2026-05-06 11:52 49.09237 -122.05143 16470 ft 410 kts 98°
2026-05-06 11:52 49.08795 -122.00819 16912 ft 413 kts 98°
2026-05-06 11:53 49.08350 -121.96471 17364 ft 416 kts 98°
2026-05-06 11:53 49.07900 -121.92093 17791 ft 420 kts 98°
2026-05-06 11:53 49.07439 -121.87671 18211 ft 423 kts 98°
2026-05-06 11:53 49.06973 -121.83226 18595 ft 426 kts 98°
2026-05-06 11:54 49.06506 -121.78795 18960 ft 429 kts 98°
2026-05-06 11:54 49.06029 -121.74297 19342 ft 432 kts 99°
2026-05-06 11:54 49.05547 -121.69752 19722 ft 434 kts 98°
2026-05-06 11:54 49.05307 -121.65162 20066 ft 436 kts 88°
2026-05-06 11:55 49.05558 -121.60556 20447 ft 437 kts 80°
2026-05-06 11:55 49.05999 -121.55966 20841 ft 439 kts 80°
2026-05-06 11:55 49.06435 -121.51342 21178 ft 442 kts 80°
2026-05-06 11:55 49.06865 -121.46690 21548 ft 444 kts 80°
2026-05-06 11:56 49.07292 -121.42010 21904 ft 447 kts 80°
2026-05-06 11:56 49.07715 -121.37300 22262 ft 449 kts 80°
2026-05-06 11:56 49.08133 -121.32565 22574 ft 452 kts 80°
2026-05-06 11:56 49.08557 -121.27789 22927 ft 454 kts 80°
2026-05-06 11:57 49.08985 -121.22996 23270 ft 457 kts 80°
2026-05-06 11:57 49.09416 -121.18180 23578 ft 460 kts 80°
2026-05-06 11:57 49.09850 -121.13337 23859 ft 461 kts 80°
2026-05-06 11:57 49.10279 -121.08476 24153 ft 463 kts 80°
2026-05-06 11:58 49.10707 -121.03593 24465 ft 465 kts 80°
2026-05-06 11:58 49.11127 -120.98762 24729 ft 466 kts 80°
2026-05-06 11:58 49.11552 -120.93844 25004 ft 468 kts 80°
2026-05-06 11:58 49.11977 -120.88903 25298 ft 470 kts 80°
2026-05-06 11:59 49.12403 -120.83955 25567 ft 471 kts 80°
2026-05-06 11:59 49.12832 -120.78989 25836 ft 473 kts 80°
2026-05-06 11:59 49.13261 -120.73991 26082 ft 474 kts 80°
2026-05-06 11:59 49.13684 -120.68996 26345 ft 476 kts 80°
2026-05-06 12:00 49.14104 -120.63957 26593 ft 478 kts 81°
2026-05-06 12:00 49.14519 -120.58921 26835 ft 480 kts 81°
2026-05-06 12:00 49.14937 -120.53856 27106 ft 481 kts 80°
2026-05-06 12:00 49.15360 -120.48761 27377 ft 483 kts 80°
2026-05-06 12:01 49.15782 -120.43666 27640 ft 484 kts 80°
2026-05-06 12:01 49.16202 -120.38565 27862 ft 486 kts 80°
2026-05-06 12:01 49.16623 -120.33432 28104 ft 488 kts 81°
2026-05-06 12:01 49.17043 -120.28282 28336 ft 489 kts 81°
2026-05-06 12:02 49.17459 -120.23111 28562 ft 491 kts 81°
2026-05-06 12:02 49.17867 -120.17973 28753 ft 492 kts 81°
2026-05-06 12:02 49.18276 -120.12761 29012 ft 493 kts 81°
2026-05-06 12:02 49.18684 -120.07546 29287 ft 494 kts 80°
2026-05-06 12:03 49.19092 -120.02324 29550 ft 495 kts 80°
2026-05-06 12:03 49.19500 -119.97105 29869 ft 494 kts 80°
2026-05-06 12:03 49.19906 -119.91891 30170 ft 493 kts 80°
2026-05-06 12:03 49.20309 -119.86686 30444 ft 493 kts 80°
2026-05-06 12:04 49.20709 -119.81487 30691 ft 492 kts 81°
2026-05-06 12:04 49.21104 -119.76285 30941 ft 492 kts 81°
2026-05-06 12:04 49.21490 -119.71143 31172 ft 492 kts 81°
2026-05-06 12:04 49.21884 -119.65886 31406 ft 492 kts 81°
2026-05-06 12:05 49.22267 -119.60764 31705 ft 491 kts 80°
2026-05-06 12:05 49.22653 -119.55577 31975 ft 490 kts 80°
2026-05-06 12:05 49.23039 -119.50385 32232 ft 490 kts 80°
2026-05-06 12:05 49.23422 -119.45214 32526 ft 489 kts 80°
2026-05-06 12:06 49.23800 -119.40053 32786 ft 488 kts 80°
2026-05-06 12:06 49.24175 -119.34879 32919 ft 487 kts 80°
2026-05-06 12:06 49.24902 -119.24656 32958 ft 482 kts 81°
2026-05-06 12:07 49.25120 -119.14378 32976 ft 483 kts 85°
2026-05-06 12:07 49.25238 -119.04105 32985 ft 482 kts 85°
2026-05-06 12:08 49.25343 -118.93863 32985 ft 480 kts 85°
2026-05-06 12:08 49.25447 -118.83647 32991 ft 480 kts 85°
2026-05-06 12:09 49.25540 -118.73433 32989 ft 479 kts 85°
2026-05-06 12:09 49.25621 -118.63226 33012 ft 480 kts 85°
2026-05-06 12:10 49.25696 -118.53099 33005 ft 479 kts 85°
2026-05-06 12:10 49.25767 -118.42889 33010 ft 479 kts 85°
2026-05-06 12:11 49.25817 -118.32689 33008 ft 479 kts 85°
2026-05-06 12:11 49.25858 -118.22483 33009 ft 479 kts 85°
2026-05-06 12:12 49.25899 -118.12277 33030 ft 479 kts 85°
2026-05-06 12:12 49.25930 -118.02090 33039 ft 479 kts 85°
2026-05-06 12:13 49.25951 -117.91909 33044 ft 478 kts 85°
2026-05-06 12:13 49.25968 -117.81744 33049 ft 477 kts 85°
2026-05-06 12:14 49.25975 -117.71658 33047 ft 476 kts 85°
2026-05-06 12:14 49.25967 -117.61506 33087 ft 476 kts 85°
2026-05-06 12:15 49.25945 -117.51374 33071 ft 475 kts 85°
2026-05-06 12:15 49.25915 -117.41253 33064 ft 475 kts 85°
2026-05-06 12:16 49.25878 -117.31137 33058 ft 474 kts 85°
2026-05-06 12:16 49.25843 -117.21049 33036 ft 474 kts 85°
2026-05-06 12:17 49.25801 -117.10955 33036 ft 474 kts 85°
2026-05-06 12:17 49.25737 -117.00860 33015 ft 474 kts 85°
2026-05-06 12:18 49.25661 -116.90763 33017 ft 474 kts 85°
2026-05-06 12:18 49.25588 -116.80746 33017 ft 474 kts 85°
2026-05-06 12:19 49.25506 -116.70658 33010 ft 473 kts 86°
2026-05-06 12:19 49.25408 -116.60570 33051 ft 473 kts 85°
2026-05-06 12:20 49.25307 -116.50503 33051 ft 473 kts 85°
2026-05-06 12:20 49.25199 -116.40488 33067 ft 472 kts 85°
2026-05-06 12:21 49.25080 -116.30436 33057 ft 472 kts 86°
2026-05-06 12:21 49.24950 -116.20363 33072 ft 472 kts 85°
2026-05-06 12:22 49.24814 -116.10313 33104 ft 472 kts 85°
2026-05-06 12:22 49.24661 -116.00286 33104 ft 471 kts 85°
2026-05-06 12:23 49.24504 -115.90324 33099 ft 471 kts 85°
2026-05-06 12:23 49.24347 -115.80302 33097 ft 471 kts 85°
2026-05-06 12:24 49.24173 -115.70276 33083 ft 470 kts 85°
2026-05-06 12:24 49.23992 -115.60273 33128 ft 471 kts 85°
2026-05-06 12:25 49.23808 -115.50257 33107 ft 471 kts 85°
2026-05-06 12:25 49.23611 -115.40232 33114 ft 471 kts 85°
2026-05-06 12:26 49.23396 -115.30206 33110 ft 471 kts 85°
2026-05-06 12:26 49.23180 -115.20249 33136 ft 471 kts 85°
2026-05-06 12:27 49.22961 -115.10222 33164 ft 470 kts 85°
2026-05-06 12:27 49.22727 -115.00218 33160 ft 470 kts 85°
2026-05-06 12:28 49.22489 -114.90227 33147 ft 470 kts 85°
2026-05-06 12:28 49.22240 -114.80259 33142 ft 469 kts 85°
2026-05-06 12:29 49.21975 -114.70285 33142 ft 469 kts 85°
2026-05-06 12:29 49.21706 -114.60308 33171 ft 469 kts 85°
2026-05-06 12:30 49.21435 -114.50333 33166 ft 469 kts 85°
2026-05-06 12:30 49.21152 -114.40367 33160 ft 469 kts 85°
2026-05-06 12:31 49.20862 -114.30401 33142 ft 469 kts 85°
2026-05-06 12:31 49.20566 -114.20445 33095 ft 469 kts 85°
2026-05-06 12:32 49.20310 -114.12169 33105 ft 467 kts 84°
2026-05-06 12:32 49.19990 -114.02257 33061 ft 465 kts 85°
2026-05-06 12:33 49.19614 -113.90762 33058 ft 466 kts 85°
2026-05-06 12:33 49.19343 -113.82523 33048 ft 466 kts 85°
2026-05-06 12:34 49.19007 -113.72632 33047 ft 466 kts 85°
2026-05-06 12:34 49.18657 -113.62731 33100 ft 466 kts 85°
2026-05-06 12:35 49.18302 -113.52837 33093 ft 466 kts 85°
2026-05-06 12:35 49.17938 -113.42949 33086 ft 466 kts 85°
2026-05-06 12:36 49.17567 -113.33076 33079 ft 466 kts 85°
2026-05-06 12:36 49.17182 -113.23194 33094 ft 465 kts 85°
2026-05-06 12:37 49.16790 -113.13323 33083 ft 465 kts 84°
2026-05-06 12:37 49.16393 -113.03486 33104 ft 463 kts 84°
2026-05-06 12:38 49.15989 -112.93661 33097 ft 463 kts 85°
2026-05-06 12:38 49.15575 -112.83839 33101 ft 463 kts 85°
2026-05-06 12:39 49.15150 -112.74000 33110 ft 464 kts 85°
2026-05-06 12:39 49.14721 -112.64173 33161 ft 464 kts 84°
2026-05-06 12:40 49.14294 -112.54395 33147 ft 464 kts 85°
2026-05-06 12:40 49.13845 -112.44562 33138 ft 464 kts 85°
2026-05-06 12:41 49.13386 -112.34735 33158 ft 464 kts 85°
2026-05-06 12:41 49.12918 -112.24929 33159 ft 463 kts 85°
2026-05-06 12:42 49.12450 -112.15135 33151 ft 462 kts 85°
2026-05-06 12:42 49.11975 -112.05353 33158 ft 462 kts 85°
2026-05-06 12:43 49.11489 -111.95568 33152 ft 462 kts 85°
2026-05-06 12:43 49.11000 -111.85786 33156 ft 462 kts 85°
2026-05-06 12:44 49.10493 -111.75997 33155 ft 463 kts 85°
2026-05-06 12:44 49.09971 -111.66203 33195 ft 463 kts 85°
2026-05-06 12:45 49.09456 -111.56466 33183 ft 463 kts 85°
2026-05-06 12:46 49.08661 -111.41782 33172 ft 463 kts 85°
2026-05-06 12:46 49.08116 -111.31986 33167 ft 463 kts 85°
2026-05-06 12:47 49.07566 -111.22201 33174 ft 463 kts 85°
2026-05-06 12:47 49.07013 -111.12425 33182 ft 462 kts 85°
2026-05-06 12:48 49.06453 -111.02684 33183 ft 461 kts 85°
2026-05-06 12:48 49.05881 -110.92946 33180 ft 461 kts 85°
2026-05-06 12:49 49.05299 -110.83198 33194 ft 461 kts 85°
2026-05-06 12:49 49.04714 -110.73523 33194 ft 462 kts 85°
2026-05-06 12:50 49.04114 -110.63765 33240 ft 462 kts 85°
2026-05-06 12:50 49.03501 -110.54017 33229 ft 461 kts 85°
2026-05-06 12:51 49.02891 -110.44283 33234 ft 461 kts 85°
2026-05-06 12:51 49.02280 -110.34582 33228 ft 460 kts 85°
2026-05-06 12:52 49.01656 -110.24880 33220 ft 459 kts 85°
2026-05-06 12:52 49.01021 -110.15210 33216 ft 458 kts 85°
2026-05-06 12:53 49.00379 -110.05632 33193 ft 457 kts 85°
2026-05-06 12:53 49.00166 -109.96118 33189 ft 441 kts 74°
2026-05-06 12:54 49.00607 -109.86780 33235 ft 445 kts 75°
2026-05-06 12:54 49.00825 -109.82063 33397 ft 447 kts 75°
2026-05-06 12:54 49.01036 -109.77328 33631 ft 448 kts 75°
2026-05-06 12:54 49.01237 -109.72605 33933 ft 448 kts 75°
2026-05-06 12:55 49.01435 -109.67871 34219 ft 446 kts 75°
2026-05-06 12:55 49.01630 -109.63142 34461 ft 446 kts 75°
2026-05-06 12:55 49.01824 -109.58438 34684 ft 445 kts 74°
2026-05-06 12:55 49.02018 -109.53742 34890 ft 445 kts 74°
2026-05-06 12:56 49.02213 -109.49026 35096 ft 444 kts 74°
2026-05-06 12:56 49.02602 -109.39624 35199 ft 445 kts 75°
2026-05-06 12:57 49.02981 -109.30208 35192 ft 445 kts 75°
2026-05-06 12:57 49.03347 -109.20821 35186 ft 443 kts 74°
2026-05-06 12:58 49.03706 -109.11522 35174 ft 441 kts 74°
2026-05-06 12:58 49.04055 -109.02192 35177 ft 441 kts 74°
2026-05-06 12:59 49.04394 -108.92856 35183 ft 441 kts 74°
2026-05-06 12:59 49.04727 -108.83513 35178 ft 441 kts 74°
2026-05-06 13:00 49.05059 -108.74170 35224 ft 442 kts 74°
2026-05-06 13:00 49.05380 -108.64800 35217 ft 441 kts 74°
2026-05-06 13:01 49.05692 -108.55454 35210 ft 441 kts 75°
2026-05-06 13:01 49.05993 -108.46112 35211 ft 441 kts 75°
2026-05-06 13:02 49.06297 -108.36774 35267 ft 440 kts 75°
2026-05-06 13:02 49.06592 -108.27501 35215 ft 439 kts 75°
2026-05-06 13:03 49.06871 -108.18193 35207 ft 439 kts 75°
2026-05-06 13:03 49.07141 -108.08869 35222 ft 440 kts 75°
2026-05-06 13:04 49.07412 -107.99541 35215 ft 440 kts 75°
2026-05-06 13:04 49.07679 -107.90203 35245 ft 441 kts 75°
2026-05-06 13:05 49.07939 -107.80858 35243 ft 441 kts 75°
2026-05-06 13:05 49.08183 -107.71503 35233 ft 441 kts 75°
2026-05-06 13:06 49.08407 -107.62195 35222 ft 441 kts 75°
2026-05-06 13:06 49.08639 -107.52843 35207 ft 441 kts 75°
2026-05-06 13:07 49.08864 -107.43480 35216 ft 441 kts 75°
2026-05-06 13:07 49.09080 -107.34116 35205 ft 441 kts 75°
2026-05-06 13:08 49.09288 -107.24770 35200 ft 440 kts 75°
2026-05-06 13:08 49.09489 -107.15499 35193 ft 440 kts 75°
2026-05-06 13:09 49.09678 -107.06162 35191 ft 440 kts 75°
2026-05-06 13:09 49.09861 -106.96819 35234 ft 441 kts 76°
2026-05-06 13:10 49.10039 -106.87457 35213 ft 441 kts 76°
2026-05-06 13:10 49.10213 -106.78087 35202 ft 442 kts 76°
2026-05-06 13:11 49.10371 -106.68706 35193 ft 442 kts 76°
2026-05-06 13:11 49.10524 -106.59379 35184 ft 442 kts 76°
2026-05-06 13:12 49.10673 -106.50000 35214 ft 442 kts 76°
2026-05-06 13:12 49.10817 -106.40609 35192 ft 443 kts 76°
2026-05-06 13:13 49.10949 -106.31207 35186 ft 443 kts 76°
2026-05-06 13:13 49.11067 -106.21806 35186 ft 443 kts 77°
2026-05-06 13:14 49.11185 -106.12401 35180 ft 443 kts 77°
2026-05-06 13:14 49.11294 -106.02991 35217 ft 444 kts 77°
2026-05-06 13:15 49.11396 -105.93544 35196 ft 444 kts 77°
2026-05-06 13:15 49.11493 -105.84177 35194 ft 445 kts 77°
2026-05-06 13:16 49.11585 -105.74717 35193 ft 445 kts 77°
2026-05-06 13:16 49.11668 -105.65271 35205 ft 446 kts 78°
2026-05-06 13:17 49.11733 -105.55804 35211 ft 446 kts 78°
2026-05-06 13:17 49.11792 -105.46335 35209 ft 446 kts 78°
2026-05-06 13:18 49.11856 -105.36863 35198 ft 446 kts 78°
2026-05-06 13:18 49.11906 -105.27397 35203 ft 446 kts 79°
2026-05-06 13:19 49.11941 -105.17962 35237 ft 447 kts 79°
2026-05-06 13:19 49.11967 -105.08471 35241 ft 447 kts 79°
2026-05-06 13:20 49.11989 -105.00513 35220 ft 447 kts 79°
2026-05-06 13:20 49.12010 -104.91028 35217 ft 447 kts 79°
2026-05-06 13:21 49.12022 -104.81574 35210 ft 447 kts 79°
2026-05-06 13:21 49.12024 -104.72069 35260 ft 448 kts 79°
2026-05-06 13:22 49.12022 -104.62560 35192 ft 447 kts 80°
2026-05-06 13:22 49.12013 -104.53049 35187 ft 448 kts 80°
2026-05-06 13:23 49.11994 -104.43535 35191 ft 449 kts 81°
2026-05-06 13:23 49.11952 -104.34004 35195 ft 449 kts 81°
2026-05-06 13:24 49.11916 -104.24525 35232 ft 449 kts 81°
2026-05-06 13:24 49.11878 -104.14984 35213 ft 450 kts 81°
2026-05-06 13:25 49.11830 -104.05416 35208 ft 451 kts 81°
2026-05-06 13:25 49.11766 -103.95845 35209 ft 451 kts 82°
2026-05-06 13:26 49.11698 -103.86261 35206 ft 451 kts 82°
2026-05-06 13:26 49.11625 -103.76659 35231 ft 453 kts 83°
2026-05-06 13:27 49.11541 -103.67040 35210 ft 454 kts 83°
2026-05-06 13:27 49.11443 -103.57398 35205 ft 454 kts 83°
2026-05-06 13:28 49.11343 -103.47817 35201 ft 455 kts 83°
2026-05-06 13:28 49.11235 -103.38158 35201 ft 455 kts 83°
2026-05-06 13:29 49.11119 -103.28491 35211 ft 456 kts 84°
2026-05-06 13:29 49.10992 -103.18798 35202 ft 457 kts 84°
2026-05-06 13:30 49.10858 -103.09083 35146 ft 458 kts 84°
2026-05-06 13:30 49.10727 -102.99356 35152 ft 458 kts 84°
2026-05-06 13:31 49.10578 -102.89633 35154 ft 458 kts 84°
2026-05-06 13:31 49.10412 -102.79978 35159 ft 458 kts 85°
2026-05-06 13:32 49.10239 -102.70245 35158 ft 458 kts 85°
2026-05-06 13:32 49.10063 -102.60527 35165 ft 458 kts 84°
2026-05-06 13:33 49.09897 -102.50808 35171 ft 458 kts 84°
2026-05-06 13:33 49.09717 -102.41093 35190 ft 458 kts 85°
2026-05-06 13:34 49.09515 -102.31366 35172 ft 459 kts 86°
2026-05-06 13:34 49.09307 -102.21623 35161 ft 459 kts 86°
2026-05-06 13:35 49.09093 -102.11870 35161 ft 460 kts 86°
2026-05-06 13:35 49.08869 -102.02119 35160 ft 460 kts 86°
2026-05-06 13:36 49.08634 -101.92370 35179 ft 460 kts 87°
2026-05-06 13:36 49.08393 -101.82669 35171 ft 461 kts 87°
2026-05-06 13:37 49.08134 -101.72725 35163 ft 462 kts 87°
2026-05-06 13:38 49.07880 -101.62949 35163 ft 462 kts 87°
2026-05-06 13:38 49.07613 -101.53144 35201 ft 462 kts 87°
2026-05-06 13:39 49.07336 -101.43344 35182 ft 463 kts 88°
2026-05-06 13:39 49.07053 -101.33533 35173 ft 463 kts 88°
2026-05-06 13:40 49.06765 -101.23725 35171 ft 463 kts 88°
2026-05-06 13:40 49.06465 -101.13918 35163 ft 463 kts 88°
2026-05-06 13:41 49.06157 -101.04165 35187 ft 463 kts 89°
2026-05-06 13:41 49.05836 -100.94343 35176 ft 464 kts 89°
2026-05-06 13:42 49.05511 -100.84522 35167 ft 464 kts 89°
2026-05-06 13:42 49.05175 -100.74703 35158 ft 464 kts 89°
2026-05-06 13:43 49.04834 -100.64884 35158 ft 464 kts 89°
2026-05-06 13:43 49.04481 -100.55080 35171 ft 464 kts 89°
2026-05-06 13:44 49.04126 -100.45265 35153 ft 464 kts 90°
2026-05-06 13:44 49.03765 -100.35442 35146 ft 464 kts 90°
2026-05-06 13:45 49.03392 -100.25691 35139 ft 464 kts 90°
2026-05-06 13:45 49.02804 -100.10959 35160 ft 464 kts 90°
2026-05-06 13:46 49.02402 -100.01126 35151 ft 464 kts 90°
2026-05-06 13:46 49.02001 -99.91306 35146 ft 464 kts 90°
2026-05-06 13:47 49.01587 -99.81473 35137 ft 464 kts 90°
2026-05-06 13:47 49.01169 -99.71651 35157 ft 464 kts 90°
2026-05-06 13:48 49.00738 -99.61845 35147 ft 465 kts 91°
2026-05-06 13:48 49.00286 -99.52025 35148 ft 465 kts 91°
2026-05-06 13:49 48.99837 -99.42193 35145 ft 465 kts 91°
2026-05-06 13:49 48.99389 -99.32426 35144 ft 465 kts 91°
2026-05-06 13:50 48.98926 -99.22601 35159 ft 465 kts 91°
2026-05-06 13:50 48.98451 -99.12785 35157 ft 465 kts 91°
2026-05-06 13:51 48.97972 -99.02959 35153 ft 465 kts 91°
2026-05-06 13:51 48.97481 -98.93120 35153 ft 466 kts 91°
2026-05-06 13:52 48.96972 -98.83287 35154 ft 466 kts 91°
2026-05-06 13:52 48.96468 -98.73471 35158 ft 466 kts 92°
2026-05-06 13:53 48.95956 -98.63634 35157 ft 466 kts 92°
2026-05-06 13:53 48.95436 -98.53810 35150 ft 466 kts 92°
2026-05-06 13:54 48.94906 -98.44055 35148 ft 466 kts 92°
2026-05-06 13:54 48.94361 -98.34178 35141 ft 466 kts 92°
2026-05-06 13:55 48.93823 -98.24425 35137 ft 466 kts 92°
2026-05-06 13:55 48.93268 -98.14594 35134 ft 466 kts 92°
2026-05-06 13:56 48.92690 -98.04777 35125 ft 466 kts 92°
2026-05-06 13:56 48.92112 -97.94960 35136 ft 466 kts 92°
2026-05-06 13:57 48.91537 -97.85137 35137 ft 466 kts 92°
2026-05-06 13:57 48.90948 -97.75320 35140 ft 466 kts 93°
2026-05-06 13:58 48.90357 -97.65501 35131 ft 466 kts 92°
2026-05-06 13:58 48.89761 -97.55685 35130 ft 466 kts 93°
2026-05-06 13:59 48.89142 -97.45868 35151 ft 467 kts 93°
2026-05-06 13:59 48.88511 -97.36054 35131 ft 467 kts 93°
2026-05-06 14:00 48.87880 -97.26296 35124 ft 467 kts 93°
2026-05-06 14:00 48.87237 -97.16481 35121 ft 467 kts 93°
2026-05-06 14:01 48.86626 -97.06658 35121 ft 467 kts 92°
2026-05-06 14:01 48.86172 -96.96820 35127 ft 467 kts 91°
2026-05-06 14:02 48.85754 -96.86989 35119 ft 467 kts 92°
2026-05-06 14:02 48.85290 -96.77143 35118 ft 467 kts 92°
2026-05-06 14:03 48.84784 -96.67302 35120 ft 467 kts 92°
2026-05-06 14:03 48.84282 -96.57469 35121 ft 467 kts 92°
2026-05-06 14:04 48.83772 -96.47625 35133 ft 467 kts 92°
2026-05-06 14:04 48.83268 -96.37848 35129 ft 467 kts 92°
2026-05-06 14:05 48.82754 -96.28007 35125 ft 467 kts 92°
2026-05-06 14:05 48.82312 -96.19831 35120 ft 467 kts 93°
2026-05-06 14:06 48.81767 -96.09986 35123 ft 467 kts 93°
2026-05-06 14:06 48.81218 -96.00160 35108 ft 467 kts 93°
2026-05-06 14:07 48.80670 -95.90340 35095 ft 467 kts 93°
2026-05-06 14:07 48.80115 -95.80526 35085 ft 467 kts 93°